JILIN-01 GAOFEN 3D (46456 NORAD) Tracking and Keplerian Element Data

This shows tracking and keplerian element data for the satellite.

Feedback or suggestion? Click here.




ElementValue
Catalog46456
NameJILIN-01 GAOFEN 3D
Epoch Orbit1174
Epoch Day336.88858252
Epoch Year2020
RAAN31.2023
Inclination97.532
Eccentricity0.0013959
Argument of Perigee31.8657
Mean Anonmoly82.2717
Mean Motion15.09197299
Decay Rate-5.654E-05
L11 46456U 20065C 20336.88858252 -.00005654 00000-0 -35148-3 0 9994
L22 46456 97.5320 31.2023 0013959 31.8657 82.2717 15.09197299 11743

Live tracking and technical data element details for JILIN-01 GAOFEN 3D (NORAD 46456). JILIN-01 GAOFEN 3D can be tracked NOW for your location showing map with azimuth and elevation plus other details from your city location.

Track the satellite on the map from your city or location and see movement details for azimuth, elevation, latitude, longitude, range, height, and movement on the map or in text.







IsCatalogInMostPopularTable: catalog: 46456, numindb: 28
Update: records affected: 1



GetName: 46456 JILIN-01 GAOFEN 3D

Hit Count: updated at: Wed, 02 Dec 2020 19:32:47 GMT